Location: Unspecified
(0.0000°N, 0.0000°E)
Time: 14:00:20
(UTC+00:00)

Hubble Space Telescope - Pass Details

Date: 05 October 2024
Orbit: 503 x 507 km, 28.5° (Epoch: 13 October)

Event Time Altitude Azimuth Distance (km) Brightness Sun altitude
Rises 18:38:37 0° 210° (SSW) 2,597 4.8 -12.6°
Reaches altitude 10° 18:41:56 10° 180° (S) 1,711 3.4 -13.4°
Maximum altitude 18:43:46 13° 153° (SSE) 1,539 2.9 -13.8°
Enters shadow 18:44:51 12° 135° (SE) 1,599 2.8 -14.1°
